Time,TemperatureF,DewpointF,PressureIn,WindDirection,WindDirectionDegrees,WindSpeedMPH,WindSpeedGustMPH,Humidity,HourlyPrecipIn,Conditions,Clouds,dailyrainin,SoftwareType,DateUTC
2013-07-23 00:01:00,67.9,59.0,28.91,WNW,292,3.0,7.0,73,0.00,,,0.00,Rainwise IP-100,2013-07-23 05:01:00,
2013-07-23 00:06:00,67.8,59.0,28.90,West,270,4.0,8.0,74,0.00,,,0.00,Rainwise IP-100,2013-07-23 05:06:00,
2013-07-23 00:11:00,67.7,59.0,28.91,West,270,3.0,7.0,75,0.00,,,0.00,Rainwise IP-100,2013-07-23 05:11:00,
2013-07-23 00:16:00,67.5,59.0,28.90,WNW,292,2.0,7.0,75,0.00,,,0.00,Rainwise IP-100,2013-07-23 05:16:00,
2013-07-23 00:21:00,67.4,59.0,28.90,WSW,247,7.0,7.0,75,0.00,,,0.00,Rainwise IP-100,2013-07-23 05:21:00,
2013-07-23 00:26:00,67.4,60.0,28.91,WNW,292,3.0,9.0,76,0.00,,,0.00,Rainwise IP-100,2013-07-23 05:26:00,
2013-07-23 00:31:00,67.4,60.0,28.90,West,270,6.0,7.0,76,0.00,,,0.00,Rainwise IP-100,2013-07-23 05:31:00,
2013-07-23 00:36:00,67.3,59.0,28.90,West,270,6.0,0.0,76,0.00,,,0.00,Rainwise IP-100,2013-07-23 05:36:00,
2013-07-23 00:41:00,67.1,59.0,28.90,North,360,2.0,9.0,75,0.00,,,0.00,Rainwise IP-100,2013-07-23 05:41:00,
2013-07-23 00:46:00,67.1,59.0,28.90,West,270,5.0,8.0,76,0.00,,,0.00,Rainwise IP-100,2013-07-23 05:46:00,
2013-07-23 00:51:00,67.1,59.0,28.90,West,270,4.0,8.0,76,0.00,,,0.00,Rainwise IP-100,2013-07-23 05:51:00,
2013-07-23 00:56:00,66.9,59.0,28.90,WNW,292,2.0,9.0,75,0.00,,,0.00,Rainwise IP-100,2013-07-23 05:56:00,
2013-07-23 01:01:00,66.9,59.0,28.90,WNW,292,3.0,0.0,76,0.00,,,0.00,Rainwise IP-100,2013-07-23 06:01:00,
2013-07-23 01:06:00,66.7,59.0,28.90,WSW,247,6.0,0.0,76,0.00,,,0.00,Rainwise IP-100,2013-07-23 06:06:00,
2013-07-23 01:11:00,66.5,59.0,28.90,NW,315,8.0,9.0,76,0.00,,,0.00,Rainwise IP-100,2013-07-23 06:11:00,
2013-07-23 01:16:00,66.3,58.0,28.90,WNW,292,8.0,8.0,76,0.00,,,0.00,Rainwise IP-100,2013-07-23 06:16:00,
2013-07-23 01:21:00,66.3,58.0,28.90,WSW,247,4.0,4.0,76,0.00,,,0.00,Rainwise IP-100,2013-07-23 06:21:00,
2013-07-23 01:26:00,66.2,58.0,28.90,West,270,0.0,9.0,76,0.00,,,0.00,Rainwise IP-100,2013-07-23 06:26:00,
2013-07-23 01:31:00,66.2,59.0,28.90,West,270,6.0,8.0,77,0.00,,,0.00,Rainwise IP-100,2013-07-23 06:31:00,
2013-07-23 01:36:00,66.1,58.0,28.90,WSW,247,1.0,0.0,77,0.00,,,0.00,Rainwise IP-100,2013-07-23 06:36:00,
2013-07-23 01:41:00,66.0,58.0,28.90,WNW,292,6.0,0.0,77,0.00,,,0.00,Rainwise IP-100,2013-07-23 06:41:00,
2013-07-23 01:46:00,66.0,59.0,28.91,WSW,247,4.0,7.0,78,0.00,,,0.00,Rainwise IP-100,2013-07-23 06:46:00,
2013-07-23 01:51:00,66.0,59.0,28.91,West,270,4.0,4.0,78,0.00,,,0.00,Rainwise IP-100,2013-07-23 06:51:00,
2013-07-23 01:56:00,65.9,58.0,28.91,West,270,6.0,6.0,77,0.00,,,0.00,Rainwise IP-100,2013-07-23 06:56:00,
2013-07-23 02:01:00,65.8,58.0,28.91,WSW,247,7.0,7.0,77,0.00,,,0.00,Rainwise IP-100,2013-07-23 07:01:00,
2013-07-23 02:06:00,65.8,58.0,28.91,WNW,292,6.0,9.0,78,0.00,,,0.00,Rainwise IP-100,2013-07-23 07:06:00,
2013-07-23 02:11:00,65.7,58.0,28.91,WNW,292,7.0,7.0,78,0.00,,,0.00,Rainwise IP-100,2013-07-23 07:11:00,
2013-07-23 02:16:00,65.5,58.0,28.91,NW,315,7.0,0.0,77,0.00,,,0.00,Rainwise IP-100,2013-07-23 07:16:00,
2013-07-23 02:21:00,65.3,57.0,28.91,WSW,247,2.0,0.0,77,0.00,,,0.00,Rainwise IP-100,2013-07-23 07:21:00,
2013-07-23 02:26:00,65.4,58.0,28.91,WNW,292,4.0,0.0,78,0.00,,,0.00,Rainwise IP-100,2013-07-23 07:26:00,
2013-07-23 02:31:00,65.3,57.0,28.92,WNW,292,2.0,3.0,78,0.00,,,0.00,Rainwise IP-100,2013-07-23 07:31:00,
2013-07-23 02:36:00,65.2,57.0,28.92,WNW,292,6.0,9.0,77,0.00,,,0.00,Rainwise IP-100,2013-07-23 07:36:00,
2013-07-23 02:41:00,65.1,57.0,28.92,West,270,4.0,4.0,77,0.00,,,0.00,Rainwise IP-100,2013-07-23 07:41:00,
2013-07-23 02:46:00,65.0,57.0,28.92,WNW,292,0.0,0.0,77,0.00,,,0.00,Rainwise IP-100,2013-07-23 07:46:00,
2013-07-23 02:51:00,64.9,57.0,28.92,WNW,292,5.0,5.0,76,0.00,,,0.00,Rainwise IP-100,2013-07-23 07:51:00,
2013-07-23 02:56:00,64.8,56.0,28.92,NW,315,8.0,8.0,76,0.00,,,0.00,Rainwise IP-100,2013-07-23 07:56:00,
2013-07-23 03:01:00,64.6,56.0,28.92,WNW,292,5.0,0.0,76,0.00,,,0.00,Rainwise IP-100,2013-07-23 08:01:00,
2013-07-23 03:06:00,64.4,57.0,28.91,WNW,292,9.0,0.0,77,0.00,,,0.00,Rainwise IP-100,2013-07-23 08:06:00,
2013-07-23 03:11:00,64.2,56.0,28.92,NW,315,7.0,7.0,77,0.00,,,0.00,Rainwise IP-100,2013-07-23 08:11:00,
2013-07-23 03:16:00,64.1,56.0,28.92,WNW,292,0.0,1.0,77,0.00,,,0.00,Rainwise IP-100,2013-07-23 08:16:00,
2013-07-23 03:21:00,64.0,57.0,28.92,NW,315,9.0,9.0,78,0.00,,,0.00,Rainwise IP-100,2013-07-23 08:21:00,
2013-07-23 03:26:00,63.9,57.0,28.92,WSW,247,2.0,9.0,79,0.00,,,0.00,Rainwise IP-100,2013-07-23 08:26:00,
2013-07-23 03:31:00,63.8,57.0,28.92,WSW,247,4.0,4.0,79,0.00,,,0.00,Rainwise IP-100,2013-07-23 08:31:00,
2013-07-23 03:36:00,63.6,57.0,28.93,NW,315,5.0,9.0,79,0.00,,,0.00,Rainwise IP-100,2013-07-23 08:36:00,
2013-07-23 03:41:00,63.5,57.0,28.92,WNW,292,8.0,0.0,80,0.00,,,0.00,Rainwise IP-100,2013-07-23 08:41:00,
2013-07-23 03:46:00,63.4,57.0,28.93,WNW,292,5.0,0.0,81,0.00,,,0.00,Rainwise IP-100,2013-07-23 08:46:00,
2013-07-23 03:51:00,63.3,57.0,28.93,SW,225,3.0,0.0,81,0.00,,,0.00,Rainwise IP-100,2013-07-23 08:51:00,
2013-07-23 03:56:00,63.1,57.0,28.93,WNW,292,2.0,9.0,81,0.00,,,0.00,Rainwise IP-100,2013-07-23 08:56:00,
2013-07-23 04:01:00,63.0,57.0,28.93,WNW,292,4.0,8.0,82,0.00,,,0.00,Rainwise IP-100,2013-07-23 09:01:00,
2013-07-23 04:06:00,62.8,57.0,28.93,WSW,247,6.0,7.0,82,0.00,,,0.00,Rainwise IP-100,2013-07-23 09:06:00,
2013-07-23 04:11:00,62.7,57.0,28.93,North,360,2.0,2.0,82,0.00,,,0.00,Rainwise IP-100,2013-07-23 09:11:00,
2013-07-23 04:16:00,62.7,57.0,28.94,WNW,292,9.0,9.0,82,0.00,,,0.00,Rainwise IP-100,2013-07-23 09:16:00,
2013-07-23 04:21:00,62.6,57.0,28.94,West,270,8.0,8.0,82,0.00,,,0.00,Rainwise IP-100,2013-07-23 09:21:00,
2013-07-23 04:26:00,62.5,57.0,28.94,WNW,292,6.0,6.0,83,0.00,,,0.00,Rainwise IP-100,2013-07-23 09:26:00,
2013-07-23 04:31:00,62.5,57.0,28.95,WNW,292,7.0,7.0,83,0.00,,,0.00,Rainwise IP-100,2013-07-23 09:31:00,
2013-07-23 04:36:00,62.5,57.0,28.94,NW,315,6.0,6.0,83,0.00,,,0.00,Rainwise IP-100,2013-07-23 09:36:00,
2013-07-23 04:41:00,62.3,56.0,28.94,NW,315,8.0,8.0,82,0.00,,,0.00,Rainwise IP-100,2013-07-23 09:41:00,
2013-07-23 04:46:00,62.3,56.0,28.94,WNW,292,6.0,0.0,83,0.00,,,0.00,Rainwise IP-100,2013-07-23 09:46:00,
2013-07-23 04:51:00,62.3,56.0,28.95,WNW,292,8.0,8.0,83,0.00,,,0.00,Rainwise IP-100,2013-07-23 09:51:00,
2013-07-23 04:56:00,62.2,56.0,28.95,WNW,292,0.0,0.0,83,0.00,,,0.00,Rainwise IP-100,2013-07-23 09:56:00,
2013-07-23 05:01:00,62.2,56.0,28.95,WNW,292,6.0,6.0,83,0.00,,,0.00,Rainwise IP-100,2013-07-23 10:01:00,
2013-07-23 05:06:00,62.1,56.0,28.95,WNW,292,5.0,5.0,83,0.00,,,0.00,Rainwise IP-100,2013-07-23 10:06:00,
2013-07-23 05:11:00,62.1,56.0,28.95,NW,315,4.0,0.0,83,0.00,,,0.00,Rainwise IP-100,2013-07-23 10:11:00,
2013-07-23 05:16:00,62.0,57.0,28.95,WNW,292,4.0,0.0,84,0.00,,,0.00,Rainwise IP-100,2013-07-23 10:16:00,
2013-07-23 05:21:00,61.8,56.0,28.95,NNW,337,2.0,8.0,84,0.00,,,0.00,Rainwise IP-100,2013-07-23 10:21:00,
2013-07-23 05:26:00,61.8,57.0,28.95,WNW,292,2.0,0.0,85,0.00,,,0.00,Rainwise IP-100,2013-07-23 10:26:00,
2013-07-23 05:31:00,61.7,57.0,28.95,WNW,292,3.0,0.0,85,0.00,,,0.00,Rainwise IP-100,2013-07-23 10:31:00,
2013-07-23 05:36:00,61.6,57.0,28.95,NW,315,5.0,0.0,85,0.00,,,0.00,Rainwise IP-100,2013-07-23 10:36:00,
2013-07-23 05:41:00,61.5,57.0,28.96,WNW,292,5.0,8.0,85,0.00,,,0.00,Rainwise IP-100,2013-07-23 10:41:00,
2013-07-23 05:46:00,61.3,56.0,28.96,WNW,292,0.0,8.0,85,0.00,,,0.00,Rainwise IP-100,2013-07-23 10:46:00,
2013-07-23 05:51:00,61.3,56.0,28.96,NW,315,1.0,9.0,86,0.00,,,0.00,Rainwise IP-100,2013-07-23 10:51:00,
2013-07-23 05:56:00,61.2,56.0,28.96,NW,315,5.0,7.0,86,0.00,,,0.00,Rainwise IP-100,2013-07-23 10:56:00,
2013-07-23 06:01:00,61.1,56.0,28.97,WNW,292,7.0,7.0,86,0.00,,,0.00,Rainwise IP-100,2013-07-23 11:01:00,
2013-07-23 06:06:00,61.0,56.0,28.97,WNW,292,3.0,0.0,86,0.00,,,0.00,Rainwise IP-100,2013-07-23 11:06:00,
2013-07-23 06:11:00,61.0,56.0,28.97,WNW,292,5.0,9.0,86,0.00,,,0.00,Rainwise IP-100,2013-07-23 11:11:00,
2013-07-23 06:16:00,60.9,57.0,28.97,WNW,292,5.0,9.0,87,0.00,,,0.00,Rainwise IP-100,2013-07-23 11:16:00,
2013-07-23 06:21:00,60.9,57.0,28.97,NW,315,6.0,0.0,87,0.00,,,0.00,Rainwise IP-100,2013-07-23 11:21:00,
2013-07-23 06:26:00,61.0,57.0,28.97,WNW,292,4.0,8.0,87,0.00,,,0.00,Rainwise IP-100,2013-07-23 11:26:00,
2013-07-23 06:31:00,61.0,57.0,28.98,WNW,292,5.0,8.0,87,0.00,,,0.00,Rainwise IP-100,2013-07-23 11:31:00,
2013-07-23 06:36:00,60.9,56.0,28.98,West,270,3.0,9.0,86,0.00,,,0.00,Rainwise IP-100,2013-07-23 11:36:00,
2013-07-23 06:41:00,60.8,56.0,28.98,NW,315,7.0,8.0,86,0.00,,,0.00,Rainwise IP-100,2013-07-23 11:41:00,
2013-07-23 06:46:00,61.0,56.0,28.98,NNW,337,5.0,8.0,86,0.00,,,0.00,Rainwise IP-100,2013-07-23 11:46:00,
2013-07-23 06:51:00,61.5,57.0,28.97,WNW,292,7.0,8.0,86,0.00,,,0.00,Rainwise IP-100,2013-07-23 11:51:00,
2013-07-23 06:56:00,61.8,56.0,28.98,North,360,2.0,7.0,84,0.00,,,0.00,Rainwise IP-100,2013-07-23 11:56:00,
2013-07-23 07:01:00,62.2,56.0,28.98,WNW,292,5.0,7.0,83,0.00,,,0.00,Rainwise IP-100,2013-07-23 12:01:00,
2013-07-23 07:06:00,62.3,56.0,28.98,WNW,292,6.0,6.0,82,0.00,,,0.00,Rainwise IP-100,2013-07-23 12:06:00,
2013-07-23 07:11:00,62.0,56.0,28.99,WNW,292,6.0,8.0,82,0.00,,,0.00,Rainwise IP-100,2013-07-23 12:11:00,
2013-07-23 07:16:00,62.0,56.0,29.00,WNW,292,7.0,0.0,81,0.00,,,0.00,Rainwise IP-100,2013-07-23 12:16:00,
2013-07-23 07:21:00,62.1,56.0,29.00,NW,315,6.0,9.0,81,0.00,,,0.00,Rainwise IP-100,2013-07-23 12:21:00,
2013-07-23 07:26:00,62.2,56.0,29.00,NNW,337,6.0,8.0,81,0.00,,,0.00,Rainwise IP-100,2013-07-23 12:26:00,
2013-07-23 07:31:00,62.7,56.0,29.00,North,360,4.0,7.0,80,0.00,,,0.00,Rainwise IP-100,2013-07-23 12:31:00,
2013-07-23 07:36:00,63.0,56.0,29.00,NNW,337,2.0,0.0,79,0.00,,,0.00,Rainwise IP-100,2013-07-23 12:36:00,
2013-07-23 07:41:00,63.0,56.0,29.01,WSW,247,4.0,8.0,78,0.00,,,0.00,Rainwise IP-100,2013-07-23 12:41:00,
2013-07-23 07:46:00,63.2,56.0,29.01,NNE,22,3.0,8.0,78,0.00,,,0.00,Rainwise IP-100,2013-07-23 12:46:00,
2013-07-23 07:51:00,63.7,56.0,29.01,North,360,4.0,8.0,77,0.00,,,0.00,Rainwise IP-100,2013-07-23 12:51:00,
2013-07-23 07:56:00,64.0,56.0,29.01,North,360,2.0,9.0,75,0.00,,,0.00,Rainwise IP-100,2013-07-23 12:56:00,
2013-07-23 08:01:00,64.0,55.0,29.01,NNW,337,4.0,7.0,74,0.00,,,0.00,Rainwise IP-100,2013-07-23 13:01:00,
2013-07-23 08:06:00,63.9,55.0,29.01,North,360,3.0,0.0,73,0.00,,,0.00,Rainwise IP-100,2013-07-23 13:06:00,
2013-07-23 08:11:00,64.2,55.0,29.01,NW,315,1.0,8.0,73,0.00,,,0.00,Rainwise IP-100,2013-07-23 13:11:00,
2013-07-23 08:16:00,64.5,55.0,29.01,NW,315,8.0,0.0,72,0.00,,,0.00,Rainwise IP-100,2013-07-23 13:16:00,
2013-07-23 08:21:00,64.2,54.0,29.02,NNW,337,4.0,8.0,71,0.00,,,0.00,Rainwise IP-100,2013-07-23 13:21:00,
2013-07-23 08:26:00,64.0,54.0,29.01,NNW,337,3.0,9.0,72,0.00,,,0.00,Rainwise IP-100,2013-07-23 13:26:00,
2013-07-23 08:31:00,64.1,54.0,29.01,WNW,292,4.0,9.0,72,0.00,,,0.00,Rainwise IP-100,2013-07-23 13:31:00,
2013-07-23 08:36:00,63.9,54.0,29.01,NW,315,4.0,4.0,72,0.00,,,0.00,Rainwise IP-100,2013-07-23 13:36:00,
2013-07-23 08:41:00,64.3,54.0,29.01,NNE,22,5.0,9.0,72,0.00,,,0.00,Rainwise IP-100,2013-07-23 13:41:00,
2013-07-23 08:46:00,65.2,56.0,29.00,NNE,22,4.0,4.0,72,0.00,,,0.00,Rainwise IP-100,2013-07-23 13:46:00,
2013-07-23 08:51:00,65.3,55.0,29.00,NNE,22,5.0,5.0,71,0.00,,,0.00,Rainwise IP-100,2013-07-23 13:51:00,
2013-07-23 08:56:00,65.1,56.0,29.00,NNE,22,8.0,8.0,72,0.00,,,0.00,Rainwise IP-100,2013-07-23 13:56:00,
2013-07-23 09:01:00,65.0,56.0,29.00,NNE,22,8.0,0.0,72,0.00,,,0.00,Rainwise IP-100,2013-07-23 14:01:00,
2013-07-23 09:06:00,65.2,56.0,29.00,NNE,22,4.0,4.0,72,0.00,,,0.00,Rainwise IP-100,2013-07-23 14:06:00,
2013-07-23 09:11:00,65.3,55.0,29.00,NW,315,5.0,5.0,71,0.00,,,0.00,Rainwise IP-100,2013-07-23 14:11:00,
2013-07-23 09:16:00,65.5,54.0,28.99,NW,315,5.0,5.0,69,0.00,,,0.00,Rainwise IP-100,2013-07-23 14:16:00,
2013-07-23 09:21:00,65.6,54.0,29.00,NNW,337,5.0,5.0,68,0.00,,,0.00,Rainwise IP-100,2013-07-23 14:21:00,
2013-07-23 09:26:00,65.5,54.0,29.01,NNW,337,3.0,3.0,68,0.00,,,0.00,Rainwise IP-100,2013-07-23 14:26:00,
2013-07-23 09:31:00,65.9,55.0,29.01,NNW,337,4.0,8.0,68,0.00,,,0.00,Rainwise IP-100,2013-07-23 14:31:00,
2013-07-23 09:36:00,66.5,56.0,29.01,NNW,337,5.0,9.0,68,0.00,,,0.00,Rainwise IP-100,2013-07-23 14:36:00,
2013-07-23 09:41:00,66.6,55.0,29.01,NNE,22,5.0,0.0,67,0.00,,,0.00,Rainwise IP-100,2013-07-23 14:41:00,
2013-07-23 09:46:00,66.7,54.0,29.01,NNE,22,9.0,9.0,65,0.00,,,0.00,Rainwise IP-100,2013-07-23 14:46:00,
2013-07-23 09:51:00,66.8,54.0,29.01,North,360,6.0,6.0,65,0.00,,,0.00,Rainwise IP-100,2013-07-23 14:51:00,
2013-07-23 09:56:00,66.9,55.0,29.02,NW,315,6.0,8.0,65,0.00,,,0.00,Rainwise IP-100,2013-07-23 14:56:00,
2013-07-23 10:01:00,66.8,54.0,29.02,NW,315,0.0,2.0,65,0.00,,,0.00,Rainwise IP-100,2013-07-23 15:01:00,
2013-07-23 10:06:00,66.4,54.0,29.02,WNW,292,6.0,6.0,64,0.00,,,0.00,Rainwise IP-100,2013-07-23 15:06:00,
2013-07-23 10:11:00,66.5,54.0,29.02,NNW,337,2.0,2.0,64,0.00,,,0.00,Rainwise IP-100,2013-07-23 15:11:00,
2013-07-23 10:16:00,67.0,54.0,29.02,NNE,22,5.0,5.0,63,0.00,,,0.00,Rainwise IP-100,2013-07-23 15:16:00,
2013-07-23 10:21:00,67.4,54.0,29.03,NNW,337,8.0,8.0,62,0.00,,,0.00,Rainwise IP-100,2013-07-23 15:21:00,
2013-07-23 10:26:00,67.6,54.0,29.03,NNE,22,1.0,1.0,62,0.00,,,0.00,Rainwise IP-100,2013-07-23 15:26:00,
2013-07-23 10:31:00,67.9,54.0,29.03,NNE,22,6.0,8.0,62,0.00,,,0.00,Rainwise IP-100,2013-07-23 15:31:00,
2013-07-23 10:36:00,67.8,54.0,29.02,NNE,22,4.0,0.0,62,0.00,,,0.00,Rainwise IP-100,2013-07-23 15:36:00,
2013-07-23 10:41:00,67.9,54.0,29.03,North,360,6.0,7.0,62,0.00,,,0.00,Rainwise IP-100,2013-07-23 15:41:00,
2013-07-23 10:46:00,68.3,54.0,29.03,NNE,22,3.0,8.0,61,0.00,,,0.00,Rainwise IP-100,2013-07-23 15:46:00,
2013-07-23 10:51:00,68.5,54.0,29.03,North,360,8.0,0.0,62,0.00,,,0.00,Rainwise IP-100,2013-07-23 15:51:00,
2013-07-23 10:56:00,68.5,54.0,29.03,NNW,337,3.0,0.0,62,0.00,,,0.00,Rainwise IP-100,2013-07-23 15:56:00,
2013-07-23 11:01:00,68.7,54.0,29.03,NW,315,6.0,9.0,61,0.00,,,0.00,Rainwise IP-100,2013-07-23 16:01:00,
2013-07-23 11:06:00,68.9,54.0,29.03,WNW,292,2.0,9.0,60,0.00,,,0.00,Rainwise IP-100,2013-07-23 16:06:00,
2013-07-23 11:11:00,69.1,54.0,29.03,NNW,337,0.0,8.0,59,0.00,,,0.00,Rainwise IP-100,2013-07-23 16:11:00,
2013-07-23 11:16:00,69.2,54.0,29.03,NNE,22,7.0,7.0,58,0.00,,,0.00,Rainwise IP-100,2013-07-23 16:16:00,
2013-07-23 11:21:00,69.0,54.0,29.03,WNW,292,7.0,7.0,59,0.00,,,0.00,Rainwise IP-100,2013-07-23 16:21:00,
2013-07-23 11:26:00,68.7,53.0,29.03,North,360,4.0,4.0,59,0.00,,,0.00,Rainwise IP-100,2013-07-23 16:26:00,
2013-07-23 11:31:00,68.7,53.0,29.02,NE,45,8.0,8.0,59,0.00,,,0.00,Rainwise IP-100,2013-07-23 16:31:00,
2013-07-23 11:36:00,68.8,54.0,29.04,NNE,22,7.0,7.0,60,0.00,,,0.00,Rainwise IP-100,2013-07-23 16:36:00,
2013-07-23 11:41:00,68.8,54.0,29.03,WNW,292,0.0,0.0,60,0.00,,,0.00,Rainwise IP-100,2013-07-23 16:41:00,
2013-07-23 11:46:00,69.1,54.0,29.03,NNE,22,7.0,7.0,60,0.00,,,0.00,Rainwise IP-100,2013-07-23 16:46:00,
2013-07-23 11:51:00,69.6,54.0,29.03,NNW,337,4.0,9.0,59,0.00,,,0.00,Rainwise IP-100,2013-07-23 16:51:00,
2013-07-23 11:56:00,69.4,53.0,29.03,West,270,8.0,8.0,57,0.00,,,0.00,Rainwise IP-100,2013-07-23 16:56:00,
2013-07-23 12:01:00,69.0,52.0,29.03,NNE,22,6.0,6.0,55,0.00,,,0.00,Rainwise IP-100,2013-07-23 17:01:00,
2013-07-23 12:06:00,69.4,53.0,29.04,NNE,22,3.0,0.0,56,0.00,,,0.00,Rainwise IP-100,2013-07-23 17:06:00,
2013-07-23 12:11:00,69.6,54.0,29.03,WNW,292,3.0,0.0,57,0.00,,,0.00,Rainwise IP-100,2013-07-23 17:11:00,
2013-07-23 12:16:00,69.8,53.0,29.03,NNW,337,3.0,9.0,55,0.00,,,0.00,Rainwise IP-100,2013-07-23 17:16:00,
2013-07-23 12:21:00,70.0,53.0,29.03,North,360,4.0,4.0,54,0.00,,,0.00,Rainwise IP-100,2013-07-23 17:21:00,
2013-07-23 12:26:00,70.1,52.0,29.04,NW,315,7.0,0.0,53,0.00,,,0.00,Rainwise IP-100,2013-07-23 17:26:00,
2013-07-23 12:31:00,69.8,52.0,29.03,NE,45,2.0,7.0,54,0.00,,,0.00,Rainwise IP-100,2013-07-23 17:31:00,
2013-07-23 12:36:00,69.9,53.0,29.03,NW,315,5.0,5.0,55,0.00,,,0.00,Rainwise IP-100,2013-07-23 17:36:00,
2013-07-23 12:41:00,69.9,53.0,29.03,WNW,292,0.0,4.0,54,0.00,,,0.00,Rainwise IP-100,2013-07-23 17:41:00,
2013-07-23 12:46:00,69.5,52.0,29.04,WNW,292,2.0,6.0,54,0.00,,,0.00,Rainwise IP-100,2013-07-23 17:46:00,
2013-07-23 12:51:00,69.9,53.0,29.03,North,360,3.0,3.0,54,0.00,,,0.00,Rainwise IP-100,2013-07-23 17:51:00,
2013-07-23 12:56:00,70.4,53.0,29.03,NNE,22,5.0,0.0,54,0.00,,,0.00,Rainwise IP-100,2013-07-23 17:56:00,
2013-07-23 13:01:00,70.2,53.0,29.02,NNE,22,5.0,8.0,55,0.00,,,0.00,Rainwise IP-100,2013-07-23 18:01:00,
2013-07-23 13:06:00,69.7,53.0,29.02,NW,315,4.0,8.0,56,0.00,,,0.00,Rainwise IP-100,2013-07-23 18:06:00,
2013-07-23 13:11:00,69.8,53.0,29.02,NE,45,6.0,9.0,56,0.00,,,0.00,Rainwise IP-100,2013-07-23 18:11:00,
2013-07-23 13:16:00,70.2,53.0,29.02,NNE,22,8.0,8.0,55,0.00,,,0.00,Rainwise IP-100,2013-07-23 18:16:00,
2013-07-23 13:21:00,70.4,53.0,29.02,NNE,22,4.0,9.0,55,0.00,,,0.00,Rainwise IP-100,2013-07-23 18:21:00,
2013-07-23 13:26:00,70.7,53.0,29.03,NNE,22,6.0,8.0,55,0.00,,,0.00,Rainwise IP-100,2013-07-23 18:26:00,
2013-07-23 13:31:00,71.4,53.0,29.03,North,360,5.0,9.0,53,0.00,,,0.00,Rainwise IP-100,2013-07-23 18:31:00,
2013-07-23 13:36:00,71.5,53.0,29.02,NNE,22,9.0,0.0,52,0.00,,,0.00,Rainwise IP-100,2013-07-23 18:36:00,
2013-07-23 13:41:00,71.1,53.0,29.02,NE,45,6.0,6.0,53,0.00,,,0.00,Rainwise IP-100,2013-07-23 18:41:00,
2013-07-23 13:46:00,70.7,53.0,29.02,NE,45,7.0,7.0,54,0.00,,,0.00,Rainwise IP-100,2013-07-23 18:46:00,
2013-07-23 13:51:00,70.4,53.0,29.02,NNE,22,6.0,0.0,54,0.00,,,0.00,Rainwise IP-100,2013-07-23 18:51:00,
2013-07-23 13:56:00,70.6,53.0,29.02,NNW,337,4.0,9.0,54,0.00,,,0.00,Rainwise IP-100,2013-07-23 18:56:00,
2013-07-23 14:01:00,71.5,53.0,29.03,NW,315,6.0,9.0,53,0.00,,,0.00,Rainwise IP-100,2013-07-23 19:01:00,
2013-07-23 14:06:00,71.6,53.0,29.02,WNW,292,3.0,3.0,52,0.00,,,0.00,Rainwise IP-100,2013-07-23 19:06:00,
2013-07-23 14:11:00,72.1,53.0,29.02,NNW,337,4.0,6.0,52,0.00,,,0.00,Rainwise IP-100,2013-07-23 19:11:00,
2013-07-23 14:16:00,72.6,53.0,29.03,North,360,4.0,8.0,51,0.00,,,0.00,Rainwise IP-100,2013-07-23 19:16:00,
2013-07-23 14:21:00,72.4,53.0,29.02,NNE,22,1.0,0.0,50,0.00,,,0.00,Rainwise IP-100,2013-07-23 19:21:00,
2013-07-23 14:26:00,72.5,53.0,29.02,NNW,337,2.0,2.0,50,0.00,,,0.00,Rainwise IP-100,2013-07-23 19:26:00,
2013-07-23 14:31:00,72.2,53.0,29.02,NNE,22,2.0,8.0,50,0.00,,,0.00,Rainwise IP-100,2013-07-23 19:31:00,
2013-07-23 14:36:00,72.5,53.0,29.03,NW,315,3.0,7.0,51,0.00,,,0.00,Rainwise IP-100,2013-07-23 19:36:00,
2013-07-23 14:41:00,73.0,53.0,29.02,NNE,22,5.0,5.0,50,0.00,,,0.00,Rainwise IP-100,2013-07-23 19:41:00,
2013-07-23 14:46:00,73.2,53.0,29.02,North,360,5.0,9.0,49,0.00,,,0.00,Rainwise IP-100,2013-07-23 19:46:00,
2013-07-23 14:51:00,73.6,53.0,29.02,NNE,22,3.0,7.0,48,0.00,,,0.00,Rainwise IP-100,2013-07-23 19:51:00,
2013-07-23 14:56:00,73.4,52.0,29.02,North,360,6.0,8.0,47,0.00,,,0.00,Rainwise IP-100,2013-07-23 19:56:00,
2013-07-23 15:01:00,73.0,52.0,29.02,NW,315,7.0,8.0,48,0.00,,,0.00,Rainwise IP-100,2013-07-23 20:01:00,
2013-07-23 15:06:00,72.8,53.0,29.02,ENE,67,2.0,7.0,50,0.00,,,0.00,Rainwise IP-100,2013-07-23 20:06:00,
2013-07-23 15:11:00,72.2,53.0,29.02,NE,45,5.0,9.0,51,0.00,,,0.00,Rainwise IP-100,2013-07-23 20:11:00,
2013-07-23 15:16:00,71.6,53.0,29.02,ENE,67,2.0,7.0,53,0.00,,,0.00,Rainwise IP-100,2013-07-23 20:16:00,
2013-07-23 15:21:00,72.4,54.0,29.02,West,270,4.0,5.0,52,0.00,,,0.00,Rainwise IP-100,2013-07-23 20:21:00,
2013-07-23 15:26:00,73.3,54.0,29.02,NNW,337,4.0,6.0,51,0.00,,,0.00,Rainwise IP-100,2013-07-23 20:26:00,
2013-07-23 15:31:00,74.0,54.0,29.02,WSW,247,2.0,7.0,49,0.00,,,0.00,Rainwise IP-100,2013-07-23 20:31:00,
2013-07-23 15:36:00,73.9,54.0,29.02,North,360,4.0,7.0,49,0.00,,,0.00,Rainwise IP-100,2013-07-23 20:36:00,
2013-07-23 15:41:00,73.8,53.0,29.02,North,360,5.0,7.0,49,0.00,,,0.00,Rainwise IP-100,2013-07-23 20:41:00,
2013-07-23 15:46:00,74.1,54.0,29.02,North,360,3.0,8.0,49,0.00,,,0.00,Rainwise IP-100,2013-07-23 20:46:00,
2013-07-23 15:51:00,73.5,53.0,29.02,NNW,337,6.0,6.0,49,0.00,,,0.00,Rainwise IP-100,2013-07-23 20:51:00,
2013-07-23 15:56:00,73.4,53.0,29.02,North,360,3.0,0.0,49,0.00,,,0.00,Rainwise IP-100,2013-07-23 20:56:00,
2013-07-23 16:01:00,74.4,53.0,29.02,NNW,337,4.0,7.0,47,0.00,,,0.00,Rainwise IP-100,2013-07-23 21:01:00,
2013-07-23 16:06:00,74.9,53.0,29.02,NE,45,4.0,8.0,46,0.00,,,0.00,Rainwise IP-100,2013-07-23 21:06:00,
2013-07-23 16:11:00,74.1,52.0,29.02,NNW,337,2.0,8.0,46,0.00,,,0.00,Rainwise IP-100,2013-07-23 21:11:00,
2013-07-23 16:16:00,73.5,52.0,29.02,North,360,2.0,7.0,47,0.00,,,0.00,Rainwise IP-100,2013-07-23 21:16:00,
2013-07-23 16:21:00,74.0,53.0,29.02,NNW,337,4.0,0.0,48,0.00,,,0.00,Rainwise IP-100,2013-07-23 21:21:00,
2013-07-23 16:26:00,74.4,53.0,29.01,NNE,22,5.0,5.0,48,0.00,,,0.00,Rainwise IP-100,2013-07-23 21:26:00,
2013-07-23 16:31:00,74.9,54.0,29.01,NW,315,6.0,7.0,48,0.00,,,0.00,Rainwise IP-100,2013-07-23 21:31:00,
2013-07-23 16:36:00,74.9,54.0,29.01,North,360,4.0,0.0,48,0.00,,,0.00,Rainwise IP-100,2013-07-23 21:36:00,
2013-07-23 16:41:00,74.6,53.0,29.01,North,360,4.0,8.0,46,0.00,,,0.00,Rainwise IP-100,2013-07-23 21:41:00,
2013-07-23 16:46:00,74.6,53.0,29.01,NNE,22,5.0,6.0,47,0.00,,,0.00,Rainwise IP-100,2013-07-23 21:46:00,
2013-07-23 16:51:00,74.2,53.0,29.01,NNE,22,0.0,9.0,48,0.00,,,0.00,Rainwise IP-100,2013-07-23 21:51:00,
2013-07-23 16:56:00,73.4,54.0,29.01,NNW,337,5.0,9.0,50,0.00,,,0.00,Rainwise IP-100,2013-07-23 21:56:00,
2013-07-23 17:01:00,73.5,53.0,29.01,NE,45,2.0,9.0,49,0.00,,,0.00,Rainwise IP-100,2013-07-23 22:01:00,
2013-07-23 17:06:00,74.1,53.0,29.01,ENE,67,7.0,0.0,48,0.00,,,0.00,Rainwise IP-100,2013-07-23 22:06:00,
2013-07-23 17:11:00,73.2,54.0,29.02,NNE,22,7.0,8.0,50,0.00,,,0.00,Rainwise IP-100,2013-07-23 22:11:00,
2013-07-23 17:16:00,73.3,54.0,29.01,NNE,22,3.0,6.0,51,0.00,,,0.00,Rainwise IP-100,2013-07-23 22:16:00,
2013-07-23 17:21:00,73.6,53.0,29.01,North,360,4.0,6.0,49,0.00,,,0.00,Rainwise IP-100,2013-07-23 22:21:00,
2013-07-23 17:26:00,73.8,53.0,29.01,NNE,22,4.0,9.0,48,0.00,,,0.00,Rainwise IP-100,2013-07-23 22:26:00,
2013-07-23 17:31:00,74.6,53.0,29.01,NNW,337,5.0,5.0,47,0.00,,,0.00,Rainwise IP-100,2013-07-23 22:31:00,
2013-07-23 17:36:00,75.1,53.0,29.01,North,360,5.0,7.0,46,0.00,,,0.00,Rainwise IP-100,2013-07-23 22:36:00,
2013-07-23 17:41:00,74.9,53.0,29.01,NNE,22,4.0,5.0,46,0.00,,,0.00,Rainwise IP-100,2013-07-23 22:41:00,
2013-07-23 17:46:00,74.5,52.0,29.01,NW,315,6.0,7.0,45,0.00,,,0.00,Rainwise IP-100,2013-07-23 22:46:00,
2013-07-23 17:51:00,74.6,52.0,29.02,NE,45,0.0,6.0,45,0.00,,,0.00,Rainwise IP-100,2013-07-23 22:51:00,
2013-07-23 17:56:00,74.7,53.0,29.01,NE,45,3.0,6.0,46,0.00,,,0.00,Rainwise IP-100,2013-07-23 22:56:00,
2013-07-23 18:01:00,74.4,53.0,29.01,NW,315,1.0,4.0,46,0.00,,,0.00,Rainwise IP-100,2013-07-23 23:01:00,
2013-07-23 18:06:00,74.6,53.0,29.01,WSW,247,3.0,6.0,47,0.00,,,0.00,Rainwise IP-100,2013-07-23 23:06:00,
2013-07-23 18:11:00,75.6,54.0,29.01,NW,315,5.0,6.0,47,0.00,,,0.00,Rainwise IP-100,2013-07-23 23:11:00,
2013-07-23 18:16:00,75.4,54.0,29.01,West,270,5.0,7.0,47,0.00,,,0.00,Rainwise IP-100,2013-07-23 23:16:00,
2013-07-23 18:21:00,74.6,54.0,29.01,WNW,292,6.0,8.0,48,0.00,,,0.00,Rainwise IP-100,2013-07-23 23:21:00,
2013-07-23 18:26:00,74.2,54.0,29.01,North,360,4.0,4.0,49,0.00,,,0.00,Rainwise IP-100,2013-07-23 23:26:00,
2013-07-23 18:31:00,74.4,54.0,29.01,WNW,292,5.0,8.0,49,0.00,,,0.00,Rainwise IP-100,2013-07-23 23:31:00,
2013-07-23 18:36:00,74.6,54.0,29.01,North,360,4.0,9.0,49,0.00,,,0.00,Rainwise IP-100,2013-07-23 23:36:00,
2013-07-23 18:41:00,74.7,54.0,29.01,North,360,8.0,8.0,48,0.00,,,0.00,Rainwise IP-100,2013-07-23 23:41:00,
2013-07-23 18:46:00,74.7,53.0,29.02,North,360,3.0,8.0,47,0.00,,,0.00,Rainwise IP-100,2013-07-23 23:46:00,
2013-07-23 18:51:00,74.5,53.0,29.02,NNW,337,4.0,0.0,47,0.00,,,0.00,Rainwise IP-100,2013-07-23 23:51:00,
2013-07-23 18:56:00,74.5,53.0,29.02,North,360,5.0,8.0,47,0.00,,,0.00,Rainwise IP-100,2013-07-23 23:56:00,
2013-07-23 19:01:00,74.3,53.0,29.01,NNW,337,4.0,8.0,48,0.00,,,0.00,Rainwise IP-100,2013-07-24 00:01:00,
2013-07-23 19:06:00,74.1,54.0,29.02,NW,315,4.0,7.0,49,0.00,,,0.00,Rainwise IP-100,2013-07-24 00:06:00,
2013-07-23 19:11:00,73.7,53.0,29.02,WNW,292,7.0,7.0,49,0.00,,,0.00,Rainwise IP-100,2013-07-24 00:11:00,
2013-07-23 19:16:00,73.2,54.0,29.02,NE,45,1.0,7.0,50,0.00,,,0.00,Rainwise IP-100,2013-07-24 00:16:00,
2013-07-23 19:21:00,73.4,54.0,29.02,North,360,3.0,7.0,50,0.00,,,0.00,Rainwise IP-100,2013-07-24 00:21:00,
2013-07-23 19:26:00,73.5,53.0,29.02,NNW,337,3.0,8.0,49,0.00,,,0.00,Rainwise IP-100,2013-07-24 00:26:00,
2013-07-23 19:31:00,73.0,53.0,29.02,NW,315,2.0,5.0,50,0.00,,,0.00,Rainwise IP-100,2013-07-24 00:31:00,
2013-07-23 19:36:00,72.5,53.0,29.02,NW,315,2.0,6.0,51,0.00,,,0.00,Rainwise IP-100,2013-07-24 00:36:00,
2013-07-23 19:41:00,72.3,54.0,29.02,NNE,22,4.0,6.0,52,0.00,,,0.00,Rainwise IP-100,2013-07-24 00:41:00,
2013-07-23 19:46:00,72.2,54.0,29.02,NNW,337,5.0,5.0,54,0.00,,,0.00,Rainwise IP-100,2013-07-24 00:46:00,
2013-07-23 19:51:00,72.1,54.0,29.02,North,360,5.0,7.0,55,0.00,,,0.00,Rainwise IP-100,2013-07-24 00:51:00,
2013-07-23 19:56:00,71.9,54.0,29.02,NE,45,6.0,7.0,54,0.00,,,0.00,Rainwise IP-100,2013-07-24 00:56:00,
2013-07-23 20:01:00,71.8,53.0,29.03,North,360,4.0,6.0,53,0.00,,,0.00,Rainwise IP-100,2013-07-24 01:01:00,
2013-07-23 20:06:00,71.6,54.0,29.02,NNW,337,4.0,6.0,54,0.00,,,0.00,Rainwise IP-100,2013-07-24 01:06:00,
2013-07-23 20:11:00,71.6,54.0,29.02,NNE,22,3.0,9.0,54,0.00,,,0.00,Rainwise IP-100,2013-07-24 01:11:00,
2013-07-23 20:16:00,71.6,54.0,29.02,North,360,4.0,7.0,55,0.00,,,0.00,Rainwise IP-100,2013-07-24 01:16:00,
2013-07-23 20:21:00,71.6,54.0,29.02,NE,45,3.0,6.0,55,0.00,,,0.00,Rainwise IP-100,2013-07-24 01:21:00,
2013-07-23 20:26:00,71.6,54.0,29.02,NNE,22,2.0,6.0,55,0.00,,,0.00,Rainwise IP-100,2013-07-24 01:26:00,
2013-07-23 20:31:00,71.5,55.0,29.02,NE,45,5.0,6.0,56,0.00,,,0.00,Rainwise IP-100,2013-07-24 01:31:00,
2013-07-23 20:36:00,71.4,55.0,29.02,NNE,22,4.0,6.0,57,0.00,,,0.00,Rainwise IP-100,2013-07-24 01:36:00,
2013-07-23 20:41:00,71.2,55.0,29.02,North,360,3.0,6.0,57,0.00,,,0.00,Rainwise IP-100,2013-07-24 01:41:00,
2013-07-23 20:46:00,71.0,54.0,29.02,NNE,22,3.0,5.0,57,0.00,,,0.00,Rainwise IP-100,2013-07-24 01:46:00,
2013-07-23 20:51:00,70.7,54.0,29.03,NNE,22,4.0,4.0,57,0.00,,,0.00,Rainwise IP-100,2013-07-24 01:51:00,
2013-07-23 20:56:00,70.4,55.0,29.02,NNE,22,3.0,6.0,58,0.00,,,0.00,Rainwise IP-100,2013-07-24 01:56:00,
2013-07-23 21:01:00,70.2,54.0,29.03,NNE,22,4.0,5.0,58,0.00,,,0.00,Rainwise IP-100,2013-07-24 02:01:00,
2013-07-23 21:06:00,69.9,55.0,29.03,NNW,337,5.0,5.0,59,0.00,,,0.00,Rainwise IP-100,2013-07-24 02:06:00,
2013-07-23 21:11:00,69.8,55.0,29.03,NNW,337,5.0,5.0,60,0.00,,,0.00,Rainwise IP-100,2013-07-24 02:11:00,
2013-07-23 21:16:00,69.8,55.0,29.03,NNE,22,3.0,5.0,60,0.00,,,0.00,Rainwise IP-100,2013-07-24 02:16:00,
2013-07-23 21:21:00,69.8,56.0,29.03,NNW,337,0.0,4.0,61,0.00,,,0.00,Rainwise IP-100,2013-07-24 02:21:00,
2013-07-23 21:26:00,69.7,56.0,29.04,North,360,3.0,4.0,61,0.00,,,0.00,Rainwise IP-100,2013-07-24 02:26:00,
2013-07-23 21:31:00,69.5,56.0,29.03,NNE,22,2.0,4.0,61,0.00,,,0.00,Rainwise IP-100,2013-07-24 02:31:00,
2013-07-23 21:36:00,69.4,56.0,29.04,NNE,22,3.0,4.0,62,0.00,,,0.00,Rainwise IP-100,2013-07-24 02:36:00,
2013-07-23 21:41:00,69.4,56.0,29.03,North,360,3.0,4.0,62,0.00,,,0.00,Rainwise IP-100,2013-07-24 02:41:00,
2013-07-23 21:46:00,69.5,56.0,29.04,NNE,22,3.0,4.0,62,0.00,,,0.00,Rainwise IP-100,2013-07-24 02:46:00,
2013-07-23 21:51:00,69.6,56.0,29.04,NE,45,3.0,4.0,62,0.00,,,0.00,Rainwise IP-100,2013-07-24 02:51:00,
2013-07-23 21:56:00,69.6,56.0,29.04,NNE,22,2.0,4.0,63,0.00,,,0.00,Rainwise IP-100,2013-07-24 02:56:00,
2013-07-23 22:01:00,69.5,56.0,29.04,NE,45,2.0,4.0,63,0.00,,,0.00,Rainwise IP-100,2013-07-24 03:01:00,
2013-07-23 22:06:00,69.6,57.0,29.04,ENE,67,2.0,4.0,64,0.00,,,0.00,Rainwise IP-100,2013-07-24 03:06:00,
2013-07-23 22:11:00,69.4,57.0,29.04,NE,45,1.0,3.0,65,0.00,,,0.00,Rainwise IP-100,2013-07-24 03:11:00,
2013-07-23 22:16:00,69.1,56.0,29.04,NNE,22,3.0,3.0,65,0.00,,,0.00,Rainwise IP-100,2013-07-24 03:16:00,
2013-07-23 22:21:00,69.0,56.0,29.04,NE,45,4.0,4.0,65,0.00,,,0.00,Rainwise IP-100,2013-07-24 03:21:00,
2013-07-23 22:26:00,69.0,57.0,29.04,NNE,22,2.0,4.0,66,0.00,,,0.00,Rainwise IP-100,2013-07-24 03:26:00,
2013-07-23 22:31:00,69.0,57.0,29.04,NE,45,3.0,3.0,66,0.00,,,0.00,Rainwise IP-100,2013-07-24 03:31:00,
2013-07-23 22:36:00,68.8,56.0,29.05,NNE,22,2.0,4.0,65,0.00,,,0.00,Rainwise IP-100,2013-07-24 03:36:00,
2013-07-23 22:41:00,68.6,56.0,29.05,NNE,22,2.0,3.0,66,0.00,,,0.00,Rainwise IP-100,2013-07-24 03:41:00,
2013-07-23 22:46:00,68.4,56.0,29.05,NNE,22,3.0,3.0,66,0.00,,,0.00,Rainwise IP-100,2013-07-24 03:46:00,
2013-07-23 22:51:00,68.2,56.0,29.05,NNW,337,4.0,4.0,67,0.00,,,0.00,Rainwise IP-100,2013-07-24 03:51:00,
2013-07-23 22:56:00,68.0,56.0,29.05,North,360,2.0,3.0,66,0.00,,,0.00,Rainwise IP-100,2013-07-24 03:56:00,
2013-07-23 23:01:00,67.7,56.0,29.05,North,360,3.0,3.0,66,0.00,,,0.00,Rainwise IP-100,2013-07-24 04:01:00,
2013-07-23 23:06:00,67.5,56.0,29.05,North,360,0.0,2.0,67,0.00,,,0.00,Rainwise IP-100,2013-07-24 04:06:00,
2013-07-23 23:11:00,67.3,56.0,29.06,NNE,22,2.0,3.0,68,0.00,,,0.00,Rainwise IP-100,2013-07-24 04:11:00,
2013-07-23 23:16:00,67.2,56.0,29.05,NNE,22,0.0,4.0,67,0.00,,,0.00,Rainwise IP-100,2013-07-24 04:16:00,
2013-07-23 23:21:00,67.3,56.0,29.06,NNE,22,2.0,4.0,67,0.00,,,0.00,Rainwise IP-100,2013-07-24 04:21:00,
2013-07-23 23:26:00,67.5,56.0,29.05,NE,45,5.0,5.0,67,0.00,,,0.00,Rainwise IP-100,2013-07-24 04:26:00,
2013-07-23 23:31:00,67.8,56.0,29.06,NNE,22,3.0,4.0,66,0.00,,,0.00,Rainwise IP-100,2013-07-24 04:31:00,
2013-07-23 23:36:00,68.0,55.0,29.06,NE,45,4.0,5.0,64,0.00,,,0.00,Rainwise IP-100,2013-07-24 04:36:00,
2013-07-23 23:41:00,67.9,54.0,29.06,NE,45,3.0,5.0,63,0.00,,,0.00,Rainwise IP-100,2013-07-24 04:41:00,
2013-07-23 23:46:00,67.9,54.0,29.06,NE,45,4.0,6.0,63,0.00,,,0.00,Rainwise IP-100,2013-07-24 04:46:00,
2013-07-23 23:51:00,68.0,54.0,29.06,NE,45,4.0,6.0,63,0.00,,,0.00,Rainwise IP-100,2013-07-24 04:51:00,
2013-07-23 23:56:00,68.0,55.0,29.06,NE,45,6.0,7.0,64,0.00,,,0.00,Rainwise IP-100,2013-07-24 04:56:00,